FW4096 Weather Reports


time (UTC)temp
F
wind
direction
speed
knots
gust
knots
rain 1hr
in
rain 24hr
in
rain mn
in
humidity
%
barometer
mb
20260508110004 56 30 8.7 14.8 0.00 0.00 0.00 42 1027.1
20260508105504 56 15 10.4 20.0 0.00 0.00 0.00 44 1027.1
20260508105004 56 17 10.4 20.0 0.00 0.00 0.00 44 1027.2
20260508104607 55 24 8.7 20.0 0.00 0.00 0.00 45 1027.2
20260508104004 55 21 8.7 18.2 0.00 0.00 0.00 44 1027.2
20260508103606 55 20 9.6 18.2 0.00 0.00 0.00 46 1027.1
20260508103004 54 36 7.8 14.8 0.00 0.00 0.00 45 1027.1
20260508102607 54 42 7.8 14.8 0.00 0.00 0.00 44 1027.0
20260508102004 54 39 7.8 16.5 0.00 0.00 0.00 43 1027.0
20260508101503 55 36 7.0 16.5 0.00 0.00 0.00 43 1027.1
20260508101003 54 44 7.8 14.8 0.00 0.00 0.00 46 1027.2
20260508100504 54 49 7.8 14.8 0.00 0.00 0.00 44 1027.2
20260508100004 54 49 7.0 15.6 0.00 0.00 0.00 46 1027.1
20260508095503 54 56 7.0 16.5 0.00 0.00 0.00 45 1027.3
20260508095003 53 57 7.8 16.5 0.00 0.00 0.00 48 1027.4
20260508094503 53 52 7.8 14.8 0.00 0.00 0.00 46 1027.3
20260508094003 53 52 8.7 15.6 0.00 0.00 0.00 48 1027.3
20260508093503 53 50 8.7 15.6 0.00 0.00 0.00 46 1027.2
20260508093003 54 34 8.7 19.1 0.00 0.00 0.00 45 1027.1
20260508092503 54 25 9.6 19.1 0.00 0.00 0.00 46 1027.1
20260508092003 54 26 7.8 13.9 0.00 0.00 0.00 46 1027.0
20260508091606 54 40 8.7 18.2 0.00 0.00 0.00 47 1026.7
20260508091003 53 52 9.6 18.2 0.00 0.00 0.00 45 1026.7
20260508090503 53 49 8.7 17.4 0.00 0.00 0.00 45 1026.8
20260508090003 53 48 8.7 17.4 0.00 0.00 0.00 46 1026.8
20260508085503 53 49 7.0 15.6 0.00 0.00 0.00 44 1026.7
20260508085003 54 50 6.1 14.8 0.00 0.00 0.00 47 1026.8
20260508084606 53 49 7.8 14.8 0.00 0.00 0.00 48 1026.7
20260508084003 53 48 7.8 15.6 0.00 0.00 0.00 47 1026.9
20260508083607 53 50 7.8 15.6 0.00 0.00 0.00 46 1026.9
20260508083107 54 52 6.1 14.8 0.00 0.00 0.00 47 1026.7
20260508082504 54 40 7.0 16.5 0.00 0.00 0.00 47 1026.9
20260508082004 53 37 7.8 16.5 0.00 0.00 0.00 47 1026.8
20260508081504 53 36 8.7 17.4 0.00 0.00 0.00 48 1026.9
20260508081004 52 41 8.7 17.4 0.00 0.00 0.00 48 1026.8
20260508080504 52 51 8.7 17.4 0.00 0.00 0.00 47 1026.8
20260508080004 52 51 7.0 17.4 0.00 0.00 0.00 45 1026.7
20260508075504 53 43 7.0 15.6 0.00 0.00 0.00 50 1026.7
20260508075004 53 49 7.8 15.6 0.00 0.00 0.00 47 1026.7
20260508074504 53 60 6.1 15.6 0.00 0.00 0.00 46 1026.6
20260508074004 52 64 6.1 14.8 0.00 0.00 0.00 49 1026.7
20260508073504 51 53 7.8 14.8 0.00 0.00 0.00 50 1026.7
20260508073004 51 52 8.7 18.2 0.00 0.00 0.00 48 1026.5
20260508072607 51 50 9.6 18.2 0.00 0.00 0.00 48 1026.5
20260508072004 52 45 7.8 16.5 0.00 0.00 0.00 47 1026.5
20260508071607 52 47 7.0 14.8 0.00 0.00 0.00 49 1026.4
20260508071107 51 42 7.0 12.2 0.00 0.00 0.00 51 1026.4
20260508070503 51 48 7.8 16.5 0.00 0.00 0.00 49 1026.4
20260508070004 50 53 7.0 16.5 0.00 0.00 0.00 51 1026.4
20260508065505 50 56 7.0 14.8 0.00 0.00 0.00 53 1026.4
20260508065003 50 54 7.8 14.8 0.00 0.00 0.00 53 1026.4
20260508064607 50 46 7.0 13.9 0.00 0.00 0.00 55 1026.4
20260508064003 50 43 6.1 13.9 0.00 0.00 0.00 54 1026.5
20260508063503 50 46 7.0 13.9 0.00 0.00 0.00 55 1026.5
20260508063003 50 45 7.0 13.0 0.00 0.00 0.00 54 1026.4
20260508062504 50 50 6.1 14.8 0.00 0.00 0.00 56 1026.3
20260508062004 50 53 6.1 14.8 0.00 0.00 0.00 54 1026.1
20260508061503 49 53 6.1 13.9 0.00 0.00 0.00 60 1026.0
20260508061003 49 51 7.0 13.9 0.00 0.00 0.00 58 1026.1
20260508060607 49 51 7.8 13.9 0.00 0.00 0.00 57 1026.1
20260508060106 49 47 7.0 13.9 0.00 0.00 0.00 58 1026.2
20260508055606 49 47 7.0 15.6 0.00 0.00 0.00 58 1026.2
20260508055004 49 49 5.2 11.3 0.00 0.00 0.00 59 1026.2
20260508054503 48 48 6.1 13.0 0.00 0.00 0.00 61 1026.2
20260508054003 48 47 6.1 13.0 0.00 0.00 0.00 60 1026.1
20260508053504 48 52 6.1 13.0 0.00 0.00 0.00 60 1026.0
20260508053003 48 53 6.1 13.9 0.00 0.00 0.00 61 1025.9
20260508052503 47 48 7.0 13.9 0.00 0.00 0.00 61 1025.9
20260508052003 47 50 7.0 12.2 0.00 0.00 0.00 62 1025.8
20260508051503 47 55 6.1 12.2 0.00 0.00 0.00 63 1025.6
20260508051003 47 55 6.1 13.0 0.00 0.00 0.00 66 1025.6
20260508050504 46 52 7.0 13.0 0.00 0.00 0.00 65 1025.6
20260508050003 46 50 6.1 13.0 0.00 0.00 0.00 66 1025.4
20260508045606 46 50 6.1 12.2 0.00 0.00 0.00 66 1025.4
20260508045003 46 52 5.2 12.2 0.00 0.00 0.00 67 1025.5
20260508044606 46 52 4.3 11.3 0.00 0.00 0.00 67 1025.4
20260508044003 46 53 4.3 9.6 0.00 0.00 0.00 68 1025.2
20260508043504 45 53 3.5 11.3 0.00 0.00 0.00 68 1025.3
20260508043004 45 58 2.6 11.3 0.00 0.00 0.00 68 1025.3
20260508042504 45 60 2.6 7.8 0.00 0.00 0.00 70 1025.1
20260508042004 44 53 3.5 7.8 0.00 0.00 0.00 70 1025.1
20260508041504 44 53 3.5 8.7 0.00 0.00 0.00 71 1025.1
20260508041004 43 55 4.3 12.2 0.00 0.00 0.00 72 1025.1
20260508040504 43 51 4.3 12.2 0.00 0.00 0.00 72 1025.0
20260508040004 43 48 4.3 10.4 0.00 0.00 0.00 73 1024.9
20260508035504 42 46 3.5 10.4 0.00 0.00 0.00 74 1024.8
20260508035004 42 47 3.5 8.7 0.00 0.00 0.00 74 1024.6
20260508034504 42 48 3.5 8.7 0.00 0.00 0.00 75 1024.6
20260508034004 42 48 3.5 7.8 0.00 0.00 0.00 75 1024.5
20260508033504 42 50 3.5 7.8 0.00 0.00 0.00 75 1024.4
20260508033004 41 50 2.6 7.8 0.00 0.00 0.00 76 1024.4
20260508032503 41 47 2.6 7.8 0.00 0.00 0.00 76 1024.2
20260508032004 41 49 2.6 6.1 0.00 0.00 0.00 76 1024.3
20260508031504 41 49 2.6 7.8 0.00 0.00 0.00 76 1024.2
20260508031005 41 48 2.6 7.8 0.00 0.00 0.00 77 1024.1
20260508030503 40 42 3.5 7.0 0.00 0.00 0.00 77 1024.1
20260508030004 40 39 2.6 5.2 0.00 0.00 0.00 77 1024.1
20260508025607 40 42 2.6 5.2 0.00 0.00 0.00 77 1024.1
20260508025004 40 33 2.6 7.0 0.00 0.00 0.00 77 1023.9
20260508024504 40 29 2.6 7.0 0.00 0.00 0.00 77 1023.9
20260508024004 40 27 3.5 7.0 0.00 0.00 0.00 77 1023.9
20260508023504 40 27 3.5 7.8 0.00 0.00 0.00 77 1023.7
20260508023003 40 35 2.6 7.8 0.00 0.00 0.00 77 1023.8
20260508022503 40 30 3.5 7.0 0.00 0.00 0.00 77 1023.6
20260508022004 40 20 3.5 7.0 0.00 0.00 0.00 77 1023.5
20260508021606 40 20 3.5 7.8 0.00 0.00 0.00 77 1023.5
20260508021003 40 24 3.5 7.8 0.00 0.00 0.00 77 1023.3
20260508020503 40 22 3.5 7.8 0.00 0.00 0.00 77 1023.3
20260508020106 40 23 3.5 7.8 0.00 0.00 0.00 77 1023.3
20260508015503 40 22 3.5 8.7 0.00 0.00 0.00 76 1023.2
20260508015003 40 20 3.5 8.7 0.00 0.00 0.00 76 1023.2
20260508014504 40 20 3.5 7.0 0.00 0.00 0.00 76 1023.2
20260508014004 40 25 3.5 7.0 0.00 0.00 0.00 76 1023.1
20260508013606 40 21 3.5 7.0 0.00 0.00 0.00 76 1023.1
20260508013003 40 15 4.3 7.8 0.00 0.00 0.00 76 1023.0
20260508012607 40 20 3.5 7.8 0.00 0.00 0.00 76 1023.0
20260508012106 40 16 3.5 7.8 0.00 0.00 0.00 76 1022.9
20260508011606 41 12 4.3 7.8 0.00 0.00 0.00 75 1022.9
20260508011107 41 11 4.3 8.7 0.00 0.00 0.00 75 1023.0
20260508010503 41 10 3.5 8.7 0.00 0.00 0.00 74 1022.8
20260508010003 41 15 4.3 8.7 0.00 0.00 0.00 74 1022.8
20260508005606 41 16 4.3 8.7 0.00 0.00 0.00 73 1022.8
20260508005004 42 19 3.5 7.8 0.00 0.00 0.00 72 1022.8
20260508004506 42 25 4.3 8.7 0.00 0.00 0.00 72 1022.8
20260508004108 42 24 3.5 8.7 0.00 0.00 0.00 72 1022.7
20260508003504 42 19 4.3 8.7 0.00 0.00 0.00 72 1022.7
20260508003005 42 19 4.3 8.7 0.00 0.00 0.00 71 1022.7
20260508002607 42 16 4.3 8.7 0.00 0.00 0.00 71 1022.5
20260508002107 42 17 4.3 7.8 0.00 0.00 0.00 70 1022.5
20260508001504 42 16 3.5 7.0 0.00 0.00 0.00 70 1022.5
20260508001004 42 12 4.3 7.8 0.00 0.00 0.00 70 1022.4
20260508000504 42 12 4.3 7.8 0.00 0.00 0.00 70 1022.4
20260508000107 42 11 5.2 8.7 0.00 0.00 0.00 69 1022.3
20260507235504 42 10 5.2 8.7 0.00 0.00 0.00 69 1022.2
20260507235004 43 14 4.3 9.6 0.00 0.00 0.00 69 1022.2
20260507234504 43 17 4.3 9.6 0.00 0.00 0.00 68 1022.1
20260507234004 43 15 5.2 9.6 0.00 0.00 0.00 68 1022.1
20260507233504 43 9 5.2 9.6 0.00 0.00 0.00 67 1022.0
20260507233004 43 6 6.1 9.6 0.00 0.00 0.00 66 1021.8
20260507232504 43 11 5.2 9.6 0.00 0.00 0.00 65 1021.7
20260507232004 44 21 4.3 9.6 0.00 0.00 0.00 64 1021.6
20260507231503 44 31 4.3 8.7 0.00 0.00 0.00 64 1021.7
20260507231004 44 34 4.3 8.7 0.00 0.00 0.00 64 1021.5
20260507230004 44 17 5.2 8.7 0.00 0.00 0.00 63 1021.4
20260507225503 44 15 5.2 9.6 0.00 0.00 0.00 63 1021.4
20260507225004 44 15 5.2 9.6 0.00 0.00 0.00 62 1021.3
20260507224504 44 13 4.3 8.7 0.00 0.00 0.00 62 1021.3
20260507224003 44 11 5.2 10.4 0.00 0.00 0.00 61 1021.2
20260507223607 44 11 6.1 10.4 0.00 0.00 0.00 62 1021.2
20260507223003 44 8 6.1 11.3 0.00 0.00 0.00 62 1021.1
20260507222503 44 8 6.1 11.3 0.00 0.00 0.00 62 1021.1
20260507222004 44 10 5.2 10.4 0.00 0.00 0.00 62 1021.1
20260507221504 44 13 5.2 8.7 0.00 0.00 0.00 62 1021.1
20260507221004 44 13 4.3 8.7 0.00 0.00 0.00 62 1021.0
20260507220503 43 8 5.2 9.6 0.00 0.00 0.00 63 1021.0
20260507220003 43 7 5.2 9.6 0.00 0.00 0.00 63 1021.0
20260507215503 43 7 6.1 9.6 0.00 0.00 0.00 64 1021.0
20260507215003 43 8 6.1 9.6 0.00 0.00 0.00 65 1020.9
20260507214503 43 7 6.1 9.6 0.00 0.00 0.00 66 1020.8
20260507214106 43 5 6.1 9.6 0.00 0.00 0.00 67 1020.7
20260507213503 43 1 7.8 12.2 0.00 0.00 0.00 68 1020.7
20260507213106 43 2 7.8 12.2 0.00 0.00 0.00 68 1020.6
20260507212503 42 3 7.8 9.6 0.00 0.00 0.00 68 1020.6
20260507212003 42 2 7.0 9.6 0.00 0.00 0.00 69 1020.5
20260507211503 42 360 7.0 9.6 0.00 0.00 0.00 70 1020.4
20260507211003 42 358 6.1 10.4 0.00 0.00 0.00 71 1020.4
20260507210504 42 356 7.0 10.4 0.00 0.00 0.00 71 1020.3
20260507210005 42 354 7.0 10.4 0.00 0.00 0.00 73 1020.2
20260507205504 42 353 7.0 10.4 0.00 0.00 0.00 74 1020.1
20260507205004 42 352 7.0 10.4 0.00 0.00 0.00 76 1020.0
20260507204607 42 353 7.0 9.6 0.00 0.00 0.00 76 1020.0
20260507204004 42 353 5.2 8.7 0.00 0.00 0.00 77 1020.0
20260507203504 43 345 6.1 9.6 0.00 0.00 0.00 77 1019.9
20260507203004 43 342 7.0 10.4 0.00 0.00 0.00 77 1019.8
20260507202504 43 342 7.0 10.4 0.00 0.00 0.00 77 1019.8
20260507202004 43 343 6.1 10.4 0.00 0.00 0.00 76 1019.8
20260507201504 43 343 6.1 9.6 0.00 0.00 0.00 75 1019.7
20260507201107 43 343 5.2 9.6 0.00 0.00 0.00 75 1019.7
20260507200504 43 343 6.1 10.4 0.00 0.00 0.00 75 1019.7
20260507200107 43 342 6.1 10.4 0.00 0.00 0.00 75 1019.6
20260507195504 43 339 6.1 9.6 0.00 0.00 0.00 75 1019.6
20260507195004 43 340 6.1 8.7 0.00 0.00 0.00 75 1019.5
20260507194503 43 340 6.1 9.6 0.00 0.00 0.00 74 1019.4
20260507194107 43 339 6.1 9.6 0.00 0.00 0.00 74 1019.3
20260507193607 44 338 5.2 9.6 0.00 0.00 0.00 73 1019.3
20260507193107 44 339 5.2 9.6 0.00 0.00 0.00 73 1019.2
20260507192504 44 341 6.1 8.7 0.00 0.00 0.00 72 1019.2
20260507192003 44 342 7.0 9.6 0.00 0.00 0.00 71 1019.2
20260507191503 44 342 7.8 12.2 0.00 0.00 0.00 70 1019.2
20260507191004 44 344 7.8 12.2 0.00 0.00 0.00 69 1019.0
20260507190607 44 345 7.0 11.3 0.00 0.00 0.00 69 1019.1
20260507190004 45 347 7.0 10.4 0.00 0.00 0.00 66 1019.0
20260507185503 45 348 7.8 11.3 0.00 0.00 0.00 64 1018.9
20260507185003 45 349 8.7 13.0 0.00 0.00 0.00 63 1018.8
20260507184504 45 350 9.6 13.0 0.00 0.00 0.00 62 1018.8
20260507184003 46 351 9.6 14.8 0.00 0.00 0.00 62 1018.9
20260507183503 46 351 9.6 14.8 0.00 0.00 0.00 61 1018.9
20260507183106 46 351 9.6 14.8 0.00 0.00 0.00 59 1018.7
20260507182503 46 353 10.4 14.8 0.00 0.00 0.00 57 1018.6
20260507182004 47 351 10.4 13.9 0.00 0.00 0.00 56 1018.6
20260507181503 47 351 10.4 13.9 0.00 0.00 0.00 54 1018.5
20260507181003 47 352 9.6 13.9 0.00 0.00 0.00 52 1018.4
20260507180606 48 351 8.7 12.2 0.00 0.00 0.00 52 1018.5
20260507180004 48 353 6.1 11.3 0.00 0.00 0.00 51 1018.4
20260507175606 49 356 6.1 10.4 0.00 0.00 0.00 51 1018.4
20260507175106 49 357 7.0 10.4 0.00 0.00 0.00 50 1018.4
20260507174503 49 357 7.0 10.4 0.00 0.00 0.00 50 1018.3
20260507174003 50 356 6.1 9.6 0.00 0.00 0.00 49 1018.3
20260507173503 50 355 7.0 11.3 0.00 0.00 0.00 50 1018.2
20260507173004 50 357 7.0 11.3 0.00 0.00 0.00 49 1018.2
20260507172503 50 1 6.1 9.6 0.00 0.00 0.00 50 1018.1
20260507172003 51 1 7.0 10.4 0.00 0.00 0.00 49 1018.0
20260507171504 51 360 7.8 11.3 0.00 0.00 0.00 49 1017.9
20260507171004 51 1 7.8 11.3 0.00 0.00 0.00 48 1017.8
20260507170504 51 1 7.8 11.3 0.00 0.00 0.00 47 1017.9
20260507170004 51 359 8.7 12.2 0.00 0.00 0.00 46 1017.9
20260507165504 52 356 9.6 13.9 0.00 0.00 0.00 45 1017.8
20260507165003 52 356 9.6 13.9 0.00 0.00 0.00 44 1017.8
20260507164504 52 356 9.6 13.0 0.00 0.00 0.00 44 1017.7
20260507164107 52 357 8.7 13.0 0.00 0.00 0.00 42 1017.8
20260507163504 52 355 9.6 13.0 0.00 0.00 0.00 43 1017.7
20260507163107 53 353 9.6 13.9 0.00 0.00 0.00 42 1017.7
20260507162504 53 354 8.7 13.9 0.00 0.00 0.00 43 1017.6
20260507162004 53 359 8.7 13.0 0.00 0.00 0.00 44 1017.6
20260507161504 53 360 9.6 13.0 0.00 0.00 0.00 42 1017.5
20260507161004 53 357 9.6 12.2 0.00 0.00 0.00 40 1017.6
20260507160504 54 1 7.8 12.2 0.00 0.00 0.00 40 1017.5
20260507160107 54 6 7.8 12.2 0.00 0.00 0.00 42 1017.5
20260507155504 53 10 7.8 13.9 0.00 0.00 0.00 43 1017.5
20260507155004 54 9 8.7 13.9 0.00 0.00 0.00 40 1017.4
20260507154504 54 4 7.8 13.9 0.00 0.00 0.00 40 1017.4
20260507154004 54 360 8.7 13.9 0.00 0.00 0.00 41 1017.2
20260507153607 54 357 9.6 13.9 0.00 0.00 0.00 41 1017.3
20260507153004 55 1 7.8 13.9 0.00 0.00 0.00 39 1017.2
20260507152503 55 4 7.8 12.2 0.00 0.00 0.00 39 1017.2
20260507152003 55 4 7.8 13.0 0.00 0.00 0.00 39 1017.1
20260507151504 55 1 7.8 13.0 0.00 0.00 0.00 39 1017.1
20260507151003 55 1 8.7 13.0 0.00 0.00 0.00 40 1017.2
20260507150503 55 9 7.8 13.0 0.00 0.00 0.00 39 1017.2
20260507150004 55 8 8.7 15.6 0.00 0.00 0.00 38 1017.1
20260507145503 56 5 9.6 15.6 0.00 0.00 0.00 40 1017.1
20260507145106 56 11 7.0 13.9 0.00 0.00 0.00 41 1017.1
20260507144503 54 49 7.0 14.8 0.00 0.00 0.00 36 1016.9
20260507144003 54 51 7.0 14.8 0.00 0.00 0.00 31 1017.0
20260507143607 55 48 6.1 13.9 0.00 0.00 0.00 29 1016.9
20260507143003 55 34 7.0 13.0 0.00 0.00 0.00 33 1017.0
20260507142606 54 41 7.8 14.8 0.00 0.00 0.00 34 1016.9
20260507142003 54 40 7.8 15.6 0.00 0.00 0.00 31 1016.9
20260507141606 55 29 7.0 15.6 0.00 0.00 0.00 32 1017.0
20260507141003 54 41 7.8 15.6 0.00 0.00 0.00 34 1016.9
20260507140503 54 50 7.8 15.6 0.00 0.00 0.00 32 1016.8
20260507140003 54 59 7.0 16.5 0.00 0.00 0.00 33 1016.7
20260507135503 54 55 7.0 16.5 0.00 0.00 0.00 33 1016.6
20260507135003 54 54 8.7 19.1 0.00 0.00 0.00 32 1016.6
20260507134503 54 56 8.7 19.1 0.00 0.00 0.00 33 1016.6
20260507134106 54 57 7.8 19.1 0.00 0.00 0.00 31 1016.6
20260507133503 54 58 8.7 17.4 0.00 0.00 0.00 35 1016.6
20260507133003 54 57 9.6 17.4 0.00 0.00 0.00 34 1016.5
20260507132503 54 57 8.7 16.5 0.00 0.00 0.00 32 1016.3
20260507132004 54 61 7.8 16.5 0.00 0.00 0.00 34 1016.4
20260507131504 55 46 7.8 16.5 0.00 0.00 0.00 33 1016.4
20260507131004 55 29 7.8 14.8 0.00 0.00 0.00 34 1016.5
20260507130504 55 27 7.8 14.8 0.00 0.00 0.00 36 1016.3
20260507130004 55 35 7.0 13.9 0.00 0.00 0.00 36 1016.3
20260507125504 54 42 7.8 14.8 0.00 0.00 0.00 35 1016.3
20260507125004 55 43 7.8 16.5 0.00 0.00 0.00 35 1016.2
20260507124504 54 49 7.8 16.5 0.00 0.00 0.00 36 1016.2
20260507124004 55 42 7.8 15.6 0.00 0.00 0.00 34 1016.3
20260507123607 56 32 7.8 15.6 0.00 0.00 0.00 36 1016.2
20260507123004 56 31 7.0 15.6 0.00 0.00 0.00 35 1016.2
20260507122607 56 36 7.0 15.6 0.00 0.00 0.00 38 1016.2
20260507122004 56 23 8.7 15.6 0.00 0.00 0.00 37 1016.1
20260507121504 56 21 8.7 14.8 0.00 0.00 0.00 41 1016.2
20260507121003 55 14 9.6 19.1 0.00 0.00 0.00 37 1016.2
20260507120504 56 12 9.6 19.1 0.00 0.00 0.00 41 1016.0
20260507120004 56 18 7.8 16.5 0.00 0.00 0.00 38 1016.2
20260507115504 55 18 8.7 16.5 0.00 0.00 0.00 39 1016.1
20260507115003 54 32 8.7 15.6 0.00 0.00 0.00 37 1016.2
20260507114504 54 41 7.8 13.9 0.00 0.00 0.00 40 1016.4
20260507114004 54 30 7.8 17.4 0.00 0.00 0.00 40 1016.3
20260507113607 55 13 8.7 17.4 0.00 0.00 0.00 42 1016.3
20260507113004 55 7 11.3 18.2 0.00 0.00 0.00 47 1016.3
20260507112606 54 8 11.3 18.2 0.00 0.00 0.00 45 1016.2
20260507112003 55 3 13.0 19.1 0.00 0.00 0.00 46 1016.3
20260507111607 55 2 12.2 19.1 0.00 0.00 0.00 47 1016.2
20260507111003 54 14 8.7 15.6 0.00 0.00 0.00 50 1016.3
20260507110503 54 22 7.8 13.9 0.00 0.00 0.00 49 1016.2